Location: Archemont
(49.1579°N, 1.7598°E)
Time: 11:07:51
(UTC+00:00)

deb Explorer IX - Pass Details

Date: 21 April 2024
Orbit: 513 x 891 km, 38.7° (Epoch: 23 May)

Event Time Altitude Azimuth Distance (km) Brightness Sun altitude
Rises 12:58:30 0° 253° (WSW) 3,459 ? 50.5°
Reaches altitude 10° 13:01:18 10° 243° (WSW) 2,550 ? 50.3°
Maximum altitude 13:06:36 31° 184° (S) 1,529 ? 49.9°
Drops below altitude 10° 13:11:56 10° 124° (SE) 2,558 ? 49.4°
Sets 13:14:45 0° 115° (ESE) 3,472 ? 49.2°
